This demonstration page uses our WeatherBlox Daily Observations layout. Learn more.

Left ArrowRight Arrow

47.50024, -111.30081

Hourly Observations for May 22, 2015

Temp ( °F °C ) Dew Point ( °F °C ) Humidity (%) Winds ( mph kmh ) Pressure ( in mb ) Visibility ( mi km ) Precip ( " mm )
12:53 am 00:53 Partly Cloudy 52 11.1 43 6.1 72 72 E 3 6 29.92 1013 10 16 0.00 0.00
1:53 am 01:53 Clear 54 12.2 42 5.6 64 64 VRB 3 6 29.91 1013 10 16 0.00 0.00
2:53 am 02:53 Clear 47 8.3 41 5 80 80 Calm 29.91 1013 10 16 0.00 0.00
3:53 am 03:53 Clear 45 7.2 40 4.4 83 83 Calm 29.93 1013 10 16 0.00 0.00
4:53 am 04:53 Clear 44 6.7 38 3.3 79 79 Calm 29.93 1014 10 16 0.00 0.00
5:53 am 05:53 Sunny 41 5 36 2.2 82 82 NE 6 9 29.94 1014 10 16 0.00 0.00
6:53 am 06:53 Sunny 48 8.9 42 5.6 80 80 Calm 29.92 1013 10 16 0.00 0.00
7:53 am 07:53 Sunny 50 10 41 5 71 71 E 5 7 29.94 1014 10 16 0.00 0.00
8:53 am 08:53 Sunny 55 12.8 42 5.6 62 62 Calm 29.93 1014 10 16 0.00 0.00
9:53 am 09:53 Sunny 61 16.1 43 6.1 52 52 VRB 3 6 29.92 1013 10 16 0.00 0.00
10:53 am 10:53 Sunny 63 17.2 42 5.6 47 47 NW 7 11 29.92 1013 10 16 0.00 0.00
11:53 am 11:53 Sunny 66 18.9 41 5 40 40 NW 6 9 29.91 1013 10 16 0.00 0.00
12:53 pm 12:53 Sunny 66 18.9 38 3.3 36 36 Calm 29.90 1013 10 16 0.00 0.00
1:53 pm 13:53 Mostly Sunny 68 20 40 4.4 36 36 NE 7 11 29.89 1012 10 16 0.00 0.00
2:53 pm 14:53 Mostly Cloudy 70 21.1 38 3.3 31 31 ENE 5 7 29.89 1012 10 16 0.00 0.00
3:53 pm 15:53 Sunny 70 21.1 38 3.3 31 31 NNE 9 15 29.88 1012 10 16 0.00 0.00
4:53 pm 16:53 Mostly Sunny 70 21.1 37 2.8 30 30 VRB 5 7 29.88 1012 10 16 0.00 0.00
5:53 pm 17:53 Mostly Cloudy 67 19.4 43 6.1 42 42 E 12 19 29.91 1013 10 16 0.00 0.00
6:51 pm 18:51 Mostly Cloudy 63 17 46 8 56 56 E 15 24 29.80 1009 10 16 0.00 0.03
6:53 pm 18:53 Mostly Cloudy 63 17.2 46 7.8 54 54 E 14 22 29.90 1013 10 16 0.00 0.03
7:53 pm 19:53 Mostly Cloudy 62 16.7 47 8.3 58 58 E 7 11 29.90 1013 10 16 0.00 0.00
8:53 pm 20:53 Sunny 58 14.4 47 8.3 67 67 E 7 11 29.91 1013 10 16 0.00 0.00
9:53 pm 21:53 Clear 52 11.1 46 7.8 80 80 NNE 8 13 29.92 1013 10 16 0.00 0.00
10:53 pm 22:53 Partly Cloudy 54 12.2 48 8.9 80 80 ENE 10 17 29.94 1014 10 16 0.00 0.00
11:36 pm 23:36 Clear with Nearby Thunderstorms 55 13 43 6 63 63 ENE 18 30 29.88 1012 10 16 0.00 0.00
11:53 pm 23:53 Mostly Cloudy with Nearby Thunderstorms 55 12.8 41 5 59 59 ENE 18 30 29.93 1014 10 16 0.00 0.00

Powered by AerisWeather